Daily weather history


Statistical History for Tuesday, February 19, 2013

St. Petersburg Airport, FL


  Actual Average (KTPA) Record (KTPA)
Temperature
Mean Temperature 64 °F  
Max Temperature 73 °F 86 °F (1997)
Min Temperature 55 °F 30 °F (1900)
Degree Days
Heating Degree Days 3  
Month to date heating degree days 80  
Since 1 July heating degree days 445  
Cooling Degree Days 2  
Month to date cooling degree days 38  
Year to date cooling degree days 88  
Growing Degree Days 14 (Base - )  
Moisture
Dew Point   
Average Humidity    
Maximum Humidity    
Minimum Humidity    
Precipitation
Precipitation 0.10 in 2.75 in (1927)
Month to date precipitation 1.96  
Year to date precipitation 4.19  
Wind
Wind Speed   
Max Wind Speed   
Max Gust Speed   
Visibility   
Events   

Key: T is trace of precipitation, MM is missing value
Source: NWS Daily Summary
Time(EST)TemperatureDew PointHumidity Sea Level Pressure Visibility Wind DirectionWind SpeedGust SpeedPrecipitationEventsConditions
12:53 AM 57.0 °F 48.0 °F 72% 30.23 in 10.0 miles SE 4.6 mph - N/A   Partly Cloudy
1:53 AM 57.9 °F 48.0 °F 70% 30.22 in 10.0 miles SE 4.6 mph - N/A   Overcast
2:53 AM 55.9 °F 48.0 °F 75% 30.20 in 10.0 miles SE 4.6 mph - N/A   Mostly Cloudy
3:53 AM 53.1 °F 48.0 °F 83% 30.18 in 10.0 miles SE 5.8 mph - N/A   Clear
4:53 AM 52.0 °F 48.0 °F 86% 30.19 in 10.0 miles SE 3.5 mph - N/A   Clear
5:53 AM 55.0 °F 50.0 °F 83% 30.17 in 10.0 miles SE 5.8 mph - N/A   Clear
6:53 AM 54.0 °F 48.9 °F 83% 30.17 in 10.0 miles SE 3.5 mph - N/A   Clear
7:53 AM 59.0 °F 52.0 °F 78% 30.17 in 10.0 miles SE 8.1 mph - N/A   Clear
8:53 AM 64.0 °F 54.0 °F 70% 30.18 in 10.0 miles SSE 11.5 mph - N/A   Clear
9:53 AM 69.1 °F 54.0 °F 58% 30.19 in 10.0 miles SSE 12.7 mph - N/A   Clear
10:53 AM 73.0 °F 55.0 °F 53% 30.19 in 10.0 miles SSE 11.5 mph - N/A   Clear
11:53 AM 75.0 °F 55.0 °F 50% 30.19 in 10.0 miles South 13.8 mph 20.7 mph N/A   Clear
1:53 PM 75.9 °F 55.0 °F 48% 30.13 in 10.0 miles South 17.3 mph 23.0 mph N/A   Clear
2:53 PM 77.0 °F 57.0 °F 50% 30.12 in 10.0 miles South 13.8 mph 21.9 mph N/A   Clear
3:53 PM 75.0 °F 55.9 °F 51% 30.11 in 10.0 miles SSW 15.0 mph - N/A   Clear
4:53 PM 73.9 °F 55.9 °F 53% 30.11 in 10.0 miles SSW 13.8 mph - N/A   Clear
5:53 PM 71.1 °F 57.9 °F 63% 30.11 in 10.0 miles SSW 10.4 mph - N/A   Clear
7:53 PM 66.2 °F 60.8 °F 83% 30.12 in 10.0 miles SSW 5.8 mph - N/A   Clear
8:53 PM 64.0 °F 60.1 °F 87% 30.12 in 10.0 miles SSW 5.8 mph - N/A   Clear
9:53 PM 63.0 °F 60.1 °F 90% 30.12 in 10.0 miles South 5.8 mph - N/A   Clear
10:53 PM 62.1 °F 59.0 °F 90% 30.12 in 10.0 miles South 5.8 mph - N/A   Clear
11:53 PM 62.1 °F 60.1 °F 93% 30.11 in 10.0 miles SSW 5.8 mph - N/A   Clear
ADVERTISEMENT
Enter city or zip code to search weather conditions:

My favorites Edit

Clear
65°
Clear

Clear
75°
Clear

Clear
72°
Clear


  • 490 First Avenue South
  • St. Petersburg, FL 33701
  • 727-893-8111